Tracking 19827 objects as of 22-Aug-2019
HD Live streaming from Space Station
objects crossing your sky now

METEOR 2-5 DEB


METEOR 2-5 DEB is no longer on orbit


NORAD ID: 36915
Int'l Code: 1979-095BG
Perigee: N/A
Apogee: N/A
Inclination: N/A
Period: N/A
Semi major axis: N/A
RCS: N/A
Launch date: October 31, 1979
Source: Commonwealth of Independent States (former USSR) (CIS)
Launch site: PLESETSK MISSILE AND SPACE COMPLEX (PKMTR)
Decay date: 2019-02-09

Note: This is SATELLITE DEBRIS
aabbcc
Your satellite tracking list
Your tracking list is empty




NASA's NSSDC Master Catalog

Two Line Element Set (TLE):
1 36915U 79095BG  19036.86456344 +.01410979 +96572-3 +42280-2 0  9994
2 36915 081.1371 108.0714 0006399 258.9609 101.0941 15.92486357849315
Source of the keplerian elements: AFSPC